Regional Weather Roundup
Issued by NWS Upton, NY

Current Version | Previous Version | Graphics & Text | Print | Product List | Glossary Off
Versions: 1 2 3 4 5 6 7 8 9 10 11 12 13 14 15 16 17 18 19 20 21 22 23 24 25 26 27 28 29 30 31 32 33 34 35 36 37 38 39 40 41 42 43 44 45 46 47 48 49 50

000
ASUS41 KOKX 281705
RWROKX

REGIONAL WEATHER ROUNDUP
NATIONAL WEATHER SERVICE NEW YORK NY
100 PM EDT MON JUL 28 2014

NOTE: "FAIR" INDICATES FEW OR NO CLOUDS BELOW 12,000 FEET WITH NO
SIGNIFICANT WEATHER AND/OR OBSTRUCTIONS TO VISIBILITY.

NYZ071-072-176-178-NJZ106-104-281800-
NEW YORK CITY METRO AREA


CITY           SKY/WX    TMP DP  RH WIND       PRES   REMARKS
CENTRAL PARK   PTSUNNY   78  63  59 W9        29.56F
LAGUARDIA APRT CLOUDY    80  62  54 SW9G18    29.52F
KENNEDY INTL   MOSUNNY   81  65  58 SW13      29.54F
NEWARK/LIBERTY PTSUNNY   82  63  52 W20G26    29.53F
BRNX BOT. GARD   N/A     79  63  57 W8        29.55R
TETERBORO      PTSUNNY   82  63  52 W12       29.51F
$$

NYZ177-179-078>081-281800-
LONG ISLAND NEW YORK

CITY           SKY/WX    TMP DP  RH WIND       PRES   REMARKS
FARMINGDALE    MOSUNNY   79  65  62 W17       29.54F
ISLIP          PTSUNNY   81  69  67 SW14G21   29.51F
SHIRLEY        MOSUNNY   80  68  66 SW14      29.54F
WESTHAMPTON    PTSUNNY   78  70  76 SW12G23   29.55F
MONTAUK POINT    N/A     78  72  81 S7        29.55F
$$

NYZ052-065-067-281800-
HUDSON VALLEY

CITY           SKY/WX    TMP DP  RH WIND       PRES   REMARKS
WHITE PLAINS   PTSUNNY   78  64  61 W9        29.53F
NEWBURGH       PTSUNNY   77  66  69 W12       29.53
MONTGOMERY     PTSUNNY   78  65  63 SW10      29.51F
POUGHKEEPSIE   MOSUNNY   80  66  62 SW9       29.49F
ALBANY         CLOUDY    74  64  71 NW3       29.50F
$$

NJZ001-105-106-008-010-013-015-019>022-104-281800-
NEW JERSEY

CITY           SKY/WX    TMP DP  RH WIND       PRES   REMARKS
NEWARK/LIBERTY PTSUNNY   82  63  52 W20G26    29.53F
TETERBORO      PTSUNNY   82  63  52 W12       29.51F
CALDWELL       MOSUNNY   79  62  56 SW10G22   29.54F
MORRISTOWN     PTSUNNY   81  66  61 W9G20     29.55
SOMERVILLE     MOSUNNY   80  62  54 W9G20     29.54F
LINDEN         PTSUNNY   82  63  52 W16G23    29.56S
SUSSEX         PTSUNNY   79  64  60 SW6       29.54S
ANDOVER          N/A     77  62  59 SW9G21    29.55F
TRENTON        MOSUNNY   81  62  52 MISG      29.57F
MILLVILLE      MOSUNNY   84  64  50 W20G25    29.61S
ATLANTIC CITY  MOSUNNY   84  64  50 W15G24    29.59S
WRIGHTSTOWN    MOSUNNY   79  65  61 W13       29.56F
TOMS RIVER     MOSUNNY   84  64  51 W13G21    29.57F
BELMAR         MOSUNNY   81  64  57 W13G18    29.56F
$$

PAZ047>061-062-071-281800-
EASTERN PENNSYLVANIA

CITY           SKY/WX    TMP DP  RH WIND       PRES   REMARKS
PHILADELPHIA   MOSUNNY   81  61  50 W25G35    29.59F
ALLENTOWN      CLOUDY    76  60  57 W8G18     29.58S
SCRANTON       PTSUNNY   75  61  61 SW14G20   29.56F
$$

CTZ002-004>006-009-010-012-RIZ004-006-007-MAZ004-011-015-281800-
SOUTHERN NEW ENGLAND
 IN CT

CITY           SKY/WX    TMP DP  RH WIND       PRES   REMARKS
BRADLEY INTL   PTSUNNY   79  67  66 SW9       29.50F
HARTFORD       PTSUNNY   79  67  66 S6G16     29.50F
DANBURY        MOSUNNY   78  64  61 SW14      29.53F
WTRBRY/OXFORD  PTSUNNY   75  66  73 W5        29.56F
BRIDGEPORT     SUNNY     80  69  69 SW12      29.52F
MERIDEN        PTSUNNY   80  69  69 S9        29.51F
NEW HAVEN      PTSUNNY   80  70  71 VRB6      29.52F
CHESTER        PTSUNNY   77  70  78 S12       29.55F
GROTON         PTSUNNY   76  70  82 S12       29.52F
WILLIMANTIC    CLOUDY    78  67  68 S12       29.53F

 IN RI

CITY           SKY/WX    TMP DP  RH WIND       PRES   REMARKS
PROVIDENCE     PTSUNNY   80  68  66 S13       29.54F
BLOCK ISLAND   PTSUNNY   77  70  78 S13       29.55F
WESTERLY       CLOUDY    77  69  76 S9        29.55F

 IN MA

CITY           SKY/WX    TMP DP  RH WIND       PRES   REMARKS
BOSTON         MOSUNNY   81  68  64 S15       29.52F
WORCESTER      CLOUDY    75  66  73 S12       29.55F
WESTFIELD      CLOUDY    78  69  73 S9        29.50F
PROVINCETOWN   MOSUNNY   79  70  73 S15G22    29.57F
NANTUCKET      PTSUNNY   72  67  84 S15       29.57F
$$

ANZ330-335-338-340-345-350-353-355-281800-
COASTAL MARINE OBSERVATIONS


STATION/POSITION TIME  SKY/WX   TEMP    WIND        PRES    VSBY  WAVE
                                AIR SEA DIR/SP/G                  HT/PER
                 (UTC)          (F)     (DEG/KT/KT) (MB)    (MI)  (FT/S)
NY HARB ENTRANCE NOT AVBL
4S FIRE IS       NOT AVBL
23SW MTP         1700            74 71               999.8          4/ 7
HUDSON CANYON    1700            75 74  240/ 14/ 17 1001.6          5/ 6
EXECUTION ROCKS  1700            76 72  240/ 12/ 16   N/A
WESTERN LI SOUND 1700            75     210/ 12/ 14   N/A           1
CENTRAL LI SOUND 1700            75 73  210/  6/  8   N/A           1/ 4
EASTERN LI SOUND 1600            72 68  160/  8/ 12   N/A
ROBBINS REEF     1700            77     250/ 15/ 18   N/A
$$


>>>>>>>>>>>>>>>>>>>>>>>>>>>> KEY <<<<<<<<<<<<<<<<<<<<<<<<<<<
>                                                          <
>     SKY/WX - SKY CONDITION/PRESENT WEATHER               <
>     TMP    - TEMPERATURE IN FAHRENHEIT                   <
>     DP     - DEWPOINT IN FAHRENHEIT                      <
>     RH     - RELATIVE HUMIDITY IN PERCENT                <
>     WIND   - DIRECTION AND SPEED IN MPH                  <
>     PRES   - MEAN SEA LEVEL PRESSURE IN INCHES OF HG     <
>     WCI    - WIND CHILL INDEX                            <
>     VSB    - VISIBILITY IN MILES                         <
>     HX     - HEAT INDEX                                  <
>     TC     - TEMPERATURE IN CELSIUS                      <
>     VRB    - VARIABLE WIND DIRECTION                     <
>                                                          <
>>>>>>>>>>>>>>>>>>>>>>>>>>>> KEY <<<<<<<<<<<<<<<<<<<<<<<<<<<




USA.gov is the U.S. government's official web portal to all federal, state and local government web resources and services.